User: anonymous   Login
Location: Unspecified
(0.0000°N, 0.0000°E)
Time: 07:22:35
(UTC+00:00)
Language:

COSMOS 2496 - Orbit

View from above orbital plane
View from above orbital plane
View from above satellite
View from above satellite

Ground track
Ground track

The orbit is defined by the following mean orbital elements,

1 39761U          26106.92514575 +.00000000 +00000-0 +10558-2 0 00003
2 39761  82.4454 147.1050 0019377 209.1030 150.8971 12.42876265    09
Epoch (UTC): 16 April 2026 22:12:12
Eccentricity: 0.0019377
inclination: 82.4454°
perigee height: 1479 km
apogee height: 1510 km
right ascension of ascending node: 147.1050°
argument of perigee: 209.1030°
revolutions per day: 12.42876265
mean anomaly at epoch: 150.8971°

The dashed part of the orbit path shows where the satellite is in the earth's shadow,  

DLR